Miscellaneous Local Product
Issued by NWS Hastings, NE

Home | Current Version | Previous Version | Graphics & Text | Print | Product List | Glossary On
Versions: 1 2 3 4 5 6 7 8 9 10 11 12 13 14 15 16 17 18 19 20 21 22 23 24 25 26 27 28 29 30 31 32 33 34 35 36 37 38 39 40 41 42 43 44 45 46 47 48 49 50
547
AXUS43 KGID 091002
MISGRI

GID CWA HOURLY WEATHER ROUNDUP
NATIONAL WEATHER SERVICE HASTINGS NE
400 AM CST TUE FEB 09 2016

NOTE: "FAIR" INDICATES FEW OR NO CLOUDS BELOW 12,000 FEET WITH NO
SIGNIFICANT WEATHER AND/OR OBSTRUCTIONS TO VISIBILITY.

...SOUTH CENTRAL NEBRASKA...

CITY           SKY/WX    TMP DP  RH WIND       PRES   REMARKS
GRAND ISLAND   CLEAR     19  12  74 N9        30.18R WCI   8
HASTINGS       CLEAR     22  14  71 NW9       30.15S WCI  12
ORD            PTCLDY    25  18  74 N15       30.16R WCI  13
YORK           PTCLDY    23  16  74 N10       30.15S WCI  12
AURORA         CLEAR     21  15  79 NW7       30.15S WCI  12
LEXINGTON      MOCLDY    28  19  69 NW8       30.18S WCI  20
HOLDREGE       CLOUDY    25  18  72 W5        30.16F WCI  20
HEBRON         CLEAR     26  18  72 NW9       30.16R WCI  17

...NEBRASKA PANHANDLE...

CITY           SKY/WX    TMP DP  RH WIND       PRES   REMARKS
CHADRON        CLEAR     32  25  75 NW10      30.23S WCI  24
ALLIANCE       CLEAR     33  25  72 NW15      30.18F WCI  23
SCOTTSBLUFF    CLEAR     33  25  72 NW14      30.23F WCI  23
SIDNEY         CLEAR     32  24  72 NW16      30.21F WCI  21

...WESTERN AND NORTH CENTRAL NEBRASKA...

CITY           SKY/WX    TMP DP  RH WIND       PRES   REMARKS
VALENTINE      CLOUDY    28  18  66 N7        30.22R WCI  21
AINSWORTH      CLOUDY    28  18  67 N13       30.19R WCI  17
ONEILL         PTCLDY    22  12  65 N18G24    30.18S WCI   8
BROKEN BOW     CLOUDY    29  17  61 N18       30.15S WCI  16
IMPERIAL       CLOUDY    30  23  75 NW7       30.20F WCI  23
NORTH PLATTE   MOCLDY    25  18  74 NW8       30.19S WCI  16
MCCOOK         CLOUDY    29  21  72 W12       30.21S WCI  19

...EASTERN NEBRASKA...

CITY           SKY/WX    TMP DP  RH WIND       PRES   REMARKS
NORFOLK        CLEAR     19   9  65 N21G32    30.16R WCI   3
SO SIOUX CITY  CLEAR     15   5  64 N22       30.15R WCI  -3
TEKAMAH        PTCLDY    17   7  64 N24       30.15R WCI  -1
COLUMBUS       CLEAR     19   3  49 NW15      30.16R WCI   5
ALBION         CLEAR     21   9  60 N21G30    30.15R WCI   6
OMAHA EPPLEY   CLEAR     17   9  70 N18G24    30.13R WCI   1
MILLARD        CLEAR     21  10  63 NW13G21   30.12R WCI   9
LINCOLN        CLEAR     22  12  65 N18       30.14S WCI   7
NEBRASKA CITY  PTCLDY    22  11  62 N25G31    30.09R WCI   5
BEATRICE       PTCLDY    25  15  65 N17G23    30.13R WCI  12
FALLS CITY     CLEAR     23  11  60 NW24G35   30.08R WCI   7

...NORTHERN KANSAS...

CITY           SKY/WX    TMP DP  RH WIND       PRES   REMARKS
GOODLAND       CLOUDY    22  19  89 NW9       30.21F WCI  12
HILL CITY      CLOUDY    33  23  66 NW9       30.21S WCI  25
NORTON         CLOUDY    34  21  60 W9        30.19  WCI  26
PHILLIPSBURG   CLOUDY    34  23  64 CALM      30.20S
SMITH CENTER   MOCLDY    28  18  64 NW10G16   30.19S WCI  19
BELOIT         CLEAR     27  19  74 W6        30.18R WCI  20
HAYS           CLOUDY    36  18  48 NW12      30.19F WCI  27
RUSSELL        CLOUDY    34  22  61 NW13      30.18S WCI  25
CONCORDIA      CLEAR     27  17  66 NW9       30.15S WCI  18
SALINA         CLEAR     31  17  56 NW12      30.17S WCI  22
TOPEKA         CLEAR     30  15  53 NW18G24   30.09S WCI  18



USA.gov is the U.S. government's official web portal to all federal, state and local government web resources and services.